Wind_Speed
29 26 23 24 22 21 20 18 17 17 15 14 14 12 11 10 11 10 10 10 9 8
31 29 27 24 23 21 18 17 19 19 18 17 15 14 13 11 12 11 11 10 9 8
33 31 28 26 26 23 21 19 21 22 21 21 18 16 15 12 12 12 11 10 10 9
34 33 31 30 27 26 23 24 24 26 25 23 21 21 20 21 15 15 13 13 13 12
34 33 33 32 29 27 27 28 28 27 27 25 23 24 25 23 21 21 18 15 15 15
35 34 35 33 31 29 30 28 30 28 32 29 32 30 30 26 21 19 19 17 17 17
36 38 36 33 32 32 28 30 29 32 32 33 36 33 27 27 26 21 22 19 19 20
34 31 31 31 31 31 32 36 30 34 38 30 35 36 37 34 31 29 25 20 20 21
29 27 29 31 31 34 34 34 36 40 31 36 42 43 39 37 31 29 25 25 24 23
27 29 30 27 27 27 30 34 39 39 39 41 43 44 42 42 35 34 34 28 24 23
25 25 24 25 28 27 27 31 33 32 36 34 37 45 44 43 37 39 31 30 29 25
24 24 23 25 25 26 25 26 27 26 26 35 37 43 45 42 42 39 34 32 32 29
19 20 20 20 20 20 21 20 20 24 25 29 32 38 45 45 44 38 36 34 34 35
13 13 14 13 13 14 16 17 20 22 24 26 28 30 41 47 47 42 35 34 34 36
Wind_Direction
203 201 200 197 197 195 196 193 191 187 186 189 188 186 188 193 186 194 197 192 189 185
203 203 203 202 203 203 198 195 190 189 189 192 189 188 194 202 200 194 199 200 194 196
204 206 205 203 205 203 200 196 193 193 199 201 196 196 192 203 214 203 207 203 206 201
205 208 207 208 208 206 202 198 200 208 206 205 198 206 205 208 204 208 209 205 206 212
205 207 210 212 212 210 207 208 210 209 209 209 207 212 213 211 205 206 209 210 211 211
208 208 213 214 212 211 208 209 213 206 213 210 218 216 218 212 211 207 214 211 215 216
211 212 214 215 215 213 211 211 208 216 213 220 221 218 214 215 214 211 217 213 216 222
215 217 218 219 218 214 212 220 214 215 223 214 221 220 220 218 220 216 215 216 218 222
207 213 219 218 214 206 216 211 216 224 214 216 224 224 223 223 223 215 217 220 219 219
209 207 209 209 207 218 215 212 223 220 216 226 225 226 225 220 222 216 215 218 223 221
211 213 214 218 222 221 220 218 217 214 223 220 226 228 228 221 221 222 219 218 217 217
213 215 214 219 222 223 221 221 221 222 220 223 224 228 228 221 221 221 219 218 215 208
208 209 213 217 219 221 222 224 223 224 225 228 225 227 230 223 219 216 216 216 213 214
193 198 206 208 210 213 215 219 224 227 228 231 230 229 233 229 218 217 212 211 206 208
Height
840 844 848 851 854 857 860 863 866 869 871 873 874 877 879 881 880 882 883 884 884 885
833 837 841 845 849 853 857 859 862 864 867 868 872 873 875 878 879 880 882 884 884 885
826 831 836 839 842 847 850 854 856 858 860 862 866 869 870 875 879 879 881 882 883 884
817 824 828 831 835 840 844 846 850 852 855 858 861 863 864 866 871 875 878 877 877 880
810 815 820 824 828 834 836 839 842 846 850 854 856 857 859 861 862 867 870 872 874 875
801 806 809 815 820 824 827 832 835 839 841 845 846 850 852 855 858 861 865 866 869 871
791 793 799 806 811 815 820 824 826 829 834 836 838 842 849 851 854 857 861 860 863 866
781 789 794 799 803 807 809 811 816 819 823 827 832 833 836 840 844 848 853 855 857 860
773 780 786 790 793 795 797 802 805 809 814 818 818 823 826 833 836 842 846 846 847 849
766 769 773 780 786 790 793 795 796 798 803 803 808 813 818 823 826 830 832 836 840 843
760 765 770 775 778 783 787 788 789 792 794 798 801 805 809 817 820 821 823 826 828 833
753 758 762 767 771 775 779 782 784 789 792 790 792 796 800 808 810 814 817 818 820 822
748 751 756 760 765 769 772 777 781 782 784 783 785 785 788 795 799 802 805 807 811 815
744 748 753 758 761 765 768 771 774 775 776 777 779 782 782 784 786 787 792 796 798 802